Погода в Миту

Колумбия     1°14′56″N   70°13′52″W
темп.,
°C
ветер,
м/с
пор.,
м/с
влажн.,
%
обл.,
%
осадки,
мм/ч
давл.,
гПа
погр.,
м
22 апреля, чт
чт2201:00+22ю119714 0.5 101013
04:00+21ююв11987 0.6 101013
07:00+23юв12966 0.6 1012158
10:00+30вюв226353 0.0 1013964
13:00+34в134678 0.0 10082204
16:00+26св1184100 0.5 100732
19:00+23в009588 2.3 100911
22:00+23всв119783 0.0 101112
23 апреля, пт
пт2301:00+22юв119878 0.0 101014
04:00+22юв129995 1.2 101046
07:00+23юв129663 1.5 1012124
10:00+29вюв246561 0.0 1013805
13:00+29всв12875 1.9 1009944
16:00+27св0194100 6.7 100832
19:00+23вюв1196100 7.3 100911
22:00+23ююв1197100 0.0 101111
24 апреля, сб
сб2401:00+23юв1197100 0.1 101018
04:00+22ю1299100 1.4 101070
07:00+23ююв139663 1.4 1012150
10:00+30юв12625 0.0 1013971
13:00+29вюв2378100 1.4 1009763
16:00+27с1394100 4.9 1007221
19:00+24всв0097100 5.3 100911
22:00+23всв019869 0.0 101111
25 апреля, вс
вс2501:00+22юв009896 0.0 100912
04:00+22всв009752 0.0 100912
07:00+23ююз009675 0.9 101184
10:00+31вюв116041 0.0 1012876
13:00+34всв1247100 0.0 10072171
16:00+29св127179 0.2 1006511
19:00+24ссв1196100 2.0 100927
22:00+23всв0197100 0.3 101011
26 апреля, пн
пн2601:00+23ю0098100 0.4 100914
04:00+23ююв119889 0.0 100814
07:00+24ююв139696 0.1 1010126
10:00+29юв236960 0.1 1011744
13:00+27вюв1390100 5.6 1008675
16:00+25ююв0196100 2.2 100715
19:00+23ююз0097100 2.9 101011
22:00+23ююв1498100 0.1 101198